Location: CCZU
(31.6840°N, 119.9550°E)
Time: 11:09:36
(UTC+08:00)

Tiangong 2 - Pass Details

Date: 29 April 2019
Orbit: 379 x 387 km, 42.8° (Epoch: 20 May)

Event Time Altitude Azimuth Distance (km) Brightness Sun altitude
Exits shadow 04:43:00 - 205° (SSW) 1,874 4.1 -7.7°
Reaches altitude 10° 04:44:21 10° 194° (SSW) 1,394 3.5 -7.5°
Maximum altitude 04:46:54 22° 140° (SE) 881 3.1 -7.0°
Drops below altitude 10° 04:49:28 10° 86° (E) 1,404 5.4 -6.5°
Sets 04:51:48 0° 71° (ENE) 2,262 7.9 -6.0°
